Location: Newark
(44.9861°N, 0.2536°E)
Time: 13:46:16
(UTC+00:00)

HuskySat-1 - Visible Passes

Search period start: 10 July 2020 00:00
Search period end: 20 July 2020 00:00
Orbit: 457 x 472 km, 51.6° (Epoch: 09 July)

Date Brightness Start Highest point End Pass type
(mag) Time Alt. Az. Time Alt. Az. Time Alt. Az.
10 Jul ? 00:19:25 19° E 00:19:25 19° E 00:20:42 10° ENE visible
10 Jul ? 01:53:17 25° W 01:55:05 48° NNW 01:58:37 10° NE visible
10 Jul ? 03:30:17 10° WNW 03:33:27 27° N 03:36:36 10° ENE visible
10 Jul ? 23:47:15 12° E 23:47:15 12° E 23:47:34 10° ENE visible
11 Jul ? 01:21:06 40° WNW 01:22:02 54° NNW 01:25:36 10° NE visible
11 Jul ? 02:57:10 10° WNW 03:00:21 28° N 03:03:31 10° ENE visible
12 Jul ? 00:48:52 61° NW 00:48:59 62° NNW 00:52:35 10° ENE visible
12 Jul ? 02:24:03 10° WNW 02:27:15 28° N 02:30:27 10° NE visible
13 Jul ? 00:16:33 56° NNE 00:16:33 56° NNE 00:19:34 10° ENE visible
13 Jul ? 01:50:55 10° WNW 01:54:09 29° N 01:57:23 10° NE visible
13 Jul ? 03:29:17 10° NW 03:32:37 33° NNE 03:35:56 10° E visible
13 Jul ? 23:44:07 40° NE 23:44:07 40° NE 23:46:33 10° ENE visible
14 Jul ? 01:17:56 11° WNW 01:21:03 30° N 01:24:20 10° NE visible
14 Jul ? 02:56:15 10° NW 02:59:32 31° N 03:02:48 10° ENE visible
14 Jul ? 23:11:28 31° ENE 23:11:28 31° ENE 23:13:31 10° ENE visible
15 Jul ? 00:45:17 14° WNW 00:47:58 32° NNW 00:51:16 10° NE visible
15 Jul ? 02:23:10 10° NW 02:26:25 30° N 02:29:40 10° ENE visible
15 Jul ? 22:38:19 33° ENE 22:38:19 33° ENE 22:40:28 10° ENE visible
16 Jul ? 00:12:03 13° WNW 00:14:52 34° NNW 00:18:14 10° NE visible
16 Jul ? 01:50:06 10° NW 01:53:20 29° N 01:56:32 10° ENE visible
16 Jul ? 03:27:57 10° WNW 03:31:35 67° NNE 03:35:10 10° ESE visible
16 Jul ? 22:00:12 10° SW 22:03:48 59° SE 22:07:25 10° ENE visible
16 Jul ? 23:38:21 10° W 23:41:46 37° NNW 23:45:11 10° NE visible
17 Jul ? 01:17:01 10° WNW 01:20:13 28° N 01:23:24 10° ENE visible
17 Jul ? 02:54:55 10° NW 02:58:31 58° NNE 03:02:05 10° ESE visible
17 Jul ? 21:27:15 10° SW 21:30:48 49° SE 21:34:20 10° ENE visible
17 Jul ? 23:05:12 10° W 23:08:41 40° NNW 23:12:09 10° NE visible
18 Jul ? 00:43:55 10° WNW 00:47:06 28° N 00:50:17 10° ENE visible
18 Jul ? 02:21:53 10° NW 02:25:27 51° NNE 02:28:59 10° E visible
18 Jul ? 20:54:19 10° SSW 20:57:48 41° SE 21:01:15 10° ENE visible
18 Jul ? 22:32:04 10° W 22:35:36 44° NNW 22:39:08 10° NE visible
19 Jul ? 00:10:48 10° WNW 00:14:00 27° N 00:17:10 10° ENE visible
19 Jul ? 01:48:51 10° NW 01:52:23 45° NNE 01:55:52 10° E visible
19 Jul ? 03:26:45 10° WNW 03:30:09 38° SW 03:33:31 10° SSE visible
19 Jul ? 20:21:26 10° SSW 20:24:47 34° SE 20:28:08 10° ENE visible
19 Jul ? 21:58:56 10° W 22:02:31 50° NNW 22:06:05 10° NE visible
19 Jul ? 23:37:40 10° WNW 23:40:52 28° N 23:44:03 10° ENE visible
